Flag for France Weather past 2 weeks in Marseille, France

Now
50 °F

Sunny.


Feels Like: 44 °F
Forecast: 41 / 57 °F
Wind: 17 mph from Northwest

Location: Marseille / Marignane

Current Time: Dec 21, 2014 at 11:27:26 AM

Latest Report: Dec 21, 2014 at 11:00 AM


Visibility: 10 mi

Pressure: 30.36 "Hg

Humidity: 62%

Dew point: 37 °F

Location of MarseilleLocation

Historic Weather in Marseille — Graph

°F

Marseille temperature yesterday

Maximum temperature yesterday: 63 °F (at 2:30 PM)
Minimum temperature yesterday: 48 °F (at 11:30 PM)
Average temperature yesterday: 54 °F

Past Weeks' High & Low Weather Summary

 TemperatureHumidityPressure
High64 °F (Dec 14, 12:30 PM)94% (Dec 15, 6:00 AM)30.36 "Hg (Dec 15, 6:00 AM)
Low36 °F (Dec 10, 2:30 AM)37% (Dec 10, 3:00 PM)29.80 "Hg (Dec 16, 1:30 PM)
Average51 °F72%30.08 "Hg
* Reported Dec 6 10:00 AM — Dec 21 10:00 AM, Marseille, Weather by CustomWeather, © 2014

Note: Actual official high and low records may vary slightly from our data, if they occured in-between our weather recording intervals... More about our weather records

Advertising

Marseille weather history for previous 24 hours

 ConditionsComfort  
Time TempWeatherWind HumidityBarometerVisibility
10:00 AM
Dec 21
48 °FSunny.15 mph62%30.36 "Hg10 mi
9:30 AM48 °FSunny.14 mph62%30.36 "Hg10 mi
9:00 AM48 °FSunny.16 mph62%30.33 "Hg10 mi
8:30 AM46 °FSunny.21 mph66%30.33 "Hg10 mi
8:00 AM46 °FClear.23 mph66%30.30 "Hg10 mi
7:30 AM46 °FClear.31 mph66%30.30 "Hg10 mi
7:00 AM46 °FClear.22 mph62%30.27 "Hg10 mi
6:30 AM46 °FClear.22 mph62%30.30 "Hg10 mi
6:00 AM46 °FClear.14 mph66%30.30 "Hg10 mi
5:30 AM46 °FClear.23 mph66%30.30 "Hg10 mi
5:00 AM46 °FClear.30 mph66%30.27 "Hg10 mi
4:30 AM46 °FClear.22 mph66%30.30 "Hg10 mi
3:30 AM46 °FClear.17 mph62%30.33 "HgN/A
3:00 AM46 °FClear.13 mph62%30.33 "HgN/A
2:30 AM46 °FClear.12 mph62%30.33 "HgN/A
2:00 AM46 °FClear.12 mph62%30.33 "HgN/A
1:30 AM46 °FClear.14 mph62%30.33 "HgN/A
1:00 AM46 °FClear.7 mph62%30.36 "HgN/A
12:30 AM46 °FClear.10 mph62%30.36 "HgN/A
12:00 AM48 °FPassing clouds.15 mph62%30.36 "HgN/A
11:30 PM
Dec 20
48 °FClear.23 mph62%30.36 "Hg10 mi
11:00 PM50 °FClear.25 mph62%30.33 "Hg10 mi
10:30 PM50 °FClear.30 mph67%30.33 "Hg10 mi
10:00 PM52 °FClear.32 mph62%30.33 "Hg10 mi
9:30 PM54 °FClear.32 mph58%30.30 "Hg10 mi
9:00 PM55 °FClear.31 mph55%30.30 "Hg10 mi
8:30 PM55 °FClear.21 mph55%30.30 "Hg10 mi
8:00 PM54 °FClear.16 mph67%30.30 "Hg10 mi
7:30 PM54 °FClear.13 mph72%30.30 "Hg10 mi
7:00 PM54 °FClear.8 mph67%30.30 "Hg10 mi
6:00 PM55 °FClear.14 mph63%30.27 "Hg10 mi
5:30 PM57 °FClear.18 mph59%30.27 "Hg10 mi
5:00 PM57 °FSunny.17 mph63%30.27 "Hg10 mi
4:30 PM59 °FSunny.22 mph59%30.27 "Hg10 mi
4:00 PM63 °FSunny.23 mph52%30.27 "Hg10 mi
3:30 PM61 °FSunny.21 mph55%30.27 "Hg10 mi
3:00 PM63 °FSunny.22 mph52%30.27 "Hg10 mi
2:30 PM63 °FSunny.20 mph56%30.27 "Hg10 mi
2:00 PM59 °FSunny.17 mph68%30.27 "Hg10 mi
1:30 PM61 °FSunny.18 mph63%30.30 "Hg10 mi
1:00 PM61 °FSunny.20 mph63%30.30 "Hg10 mi
12:30 PM59 °FSunny.20 mph68%30.30 "Hg10 mi
12:00 PM57 °FSunny.20 mph72%30.33 "Hg10 mi
11:30 AM59 °FSunny.18 mph63%30.33 "Hg10 mi
11:00 AM55 °FSunny.14 mph72%30.33 "Hg10 mi
Weather by CustomWeather, © 2014

See weather overviewHow to use our weather pages